Terug naar catalogus

DELTA 1 DEB

ActiefSSO
NORAD 40761·DEBRIS·🇺🇸 United States

Gelanceerd Jul 29, 1976 vanaf Vandenberg Space Force Base

Loading…

Volgende Passages (komende 24 uur)

TLE

VersSource: Space-Track

Epoch: Sep 14, 2026, 06:30 UTC

1 40761U 76077GE  26257.27128629  .00000108  00000-0  15617-2 0  9995
2 40761 102.4918 180.2465 0171418 200.2960 159.1212 12.11119351356912

Volg DELTA 1 DEB in realtime met AllMySat

Download on the App Store